Preview of NWS' New Version of Forecast
This preview is not operational and should not be used for support decisions.

Regional Weather Roundup (RWR)

Issued by National Weather Service (NWS)

                            
000
ASUS44 KMEG 221110
RWRTN 
TENNESSEE HOURLY STATE WEATHER ROUNDUP
NATIONAL WEATHER SERVICE MEMPHIS TN
600 AM CDT MON JUL 22 2019

TNZ002-004-019-021-049-052-054-088>092-221200-
WEST TENNESSEE
  
CITY           SKY/WX    TMP DP  RH WIND       PRES   REMARKS
MEMPHIS INTL   MOCLDY    76  75  97 S9        29.94R                  
NWS MEMPHIS      N/A     77 N/A N/A MISG        N/A                   
JACKSON        FAIR      76  75  97 S8        29.94F                  
DYERSBURG      FAIR      76  75  97 S3        29.92S                  
SOMERVILLE     CLOUDY    75  75 100 S6        29.93S                  
COVINGTON      MOCLDY    75  75 100 S6        29.92S FOG              
UNION CITY     CLOUDY    77  75  94 S6        29.89F FOG              
BOLIVAR        CLOUDY    75  73  94 S5        29.94S                  
PARIS          PTCLDY    75  75 100 S5        29.92S                  
HUNTINGDON     CLOUDY    75  75 100 S5        29.93S                  
LEXINGTON      CLOUDY    75  73  94 S5        29.94S                  
SELMER         CLOUDY    75  73  94 SW5       29.95S FOG              
SAVANNAH       CLOUDY    77  75  94 SW3       29.96R                  
$$

TNZ008-025-027-028-033-062-065-066-221200-
NORTH MIDDLE TENNESSEE
  
CITY           SKY/WX    TMP DP  RH WIND       PRES   REMARKS
NASHVILLE      CLOUDY    78  73  84 S3        29.95R                  
PORTLAND       CLOUDY    77  75  94 S7        29.93F                  
CLARKSVILLE    FAIR      76  75  97 SW6       29.92S                  
LEBANON        PTSUNNY   75  73  94 SW7       29.93S                  
SMYRNA         FAIR      75  73  93 S6        29.96S                  
MURFREESBORO   SUNNY     75  72  88 S8        29.94S                  
LIVINGSTON     CLOUDY    72  70  94 SW7       29.98S                  
GALLATIN       CLOUDY    75  75 100 CALM      29.97R                  
CROSSVILLE     CLOUDY    70  68  93 SW5       30.04R                  
ROCKWOOD       CLOUDY    72  70  94 S5        30.01S                  
$$

TNZ061-075-076-078-094-096-097-221200-
SOUTH MIDDLE TENNESSEE
  
CITY           SKY/WX    TMP DP  RH WIND       PRES   REMARKS
LAWRENCEBURG   CLOUDY    73  72  94 CALM      29.99R                  
LEWISBURG      CLOUDY    73  73 100 S5        29.97R                  
FAYETTEVILLE   PTCLDY    73  73 100 CALM      29.99R                  
TULLAHOMA      MOCLDY    73  72  94 S5        29.99S                  
WINCHESTER     MOCLDY    72  72 100 CALM      30.00R FOG              
MCMINNVILLE    CLOUDY    73  72  94 CALM      29.99S                  
COLUMBIA       CLOUDY    75  75 100 SW8       29.95S FOG              
SHELBYVILLE    PTCLDY    73  72  94 SE3       29.98R                  
$$

TNZ017-018-042-046-047-221200-
NORTHEAST TENNESSEE
  
CITY           SKY/WX    TMP DP  RH WIND       PRES   REMARKS
TRI CITIES     TSTM      71  69  93 SW3       30.02F FOG              
ELIZABETHTON   CLOUDY    72  70  94 NW3       30.03R                  
GREENEVILLE    CLOUDY    72  70  94 CALM      30.02S                  
$$

TNZ012-013-036-069-073-074-221200-
CENTRAL EAST TENNESSEE
  
CITY           SKY/WX    TMP DP  RH WIND       PRES   REMARKS
KNOXVILLE      MOCLDY    75  70  84 SW8       29.98R                  
OAK RIDGE      CLOUDY    76  71  85 VRB3      29.99R                  
DOWNTOWN KNOXV PTCLDY    73  73 100 CALM      29.99R                  
GATLINBURG     MOCLDY    73  72  94 CALM      29.99R                  
MORRISTOWN     PTCLDY    72  72 100 CALM      29.99S                  
JACKSBORO      CLOUDY    72  72 100 CALM      30.02R                  
$$

TNZ083-085-099-221200-
SOUTHEAST TENNESSEE
  
CITY           SKY/WX    TMP DP  RH WIND       PRES   REMARKS
CHATTANOOGA    MOCLDY    77  73  87 S3        29.99R                  
DAYTON         CLOUDY    75  73  94 CALM      29.98R                  
$$

SKY/WX REPORTED AS FAIR MEANS FEW OR NO CLOUDS BELOW
12 THOUSAND FEET.